Weather History for KDLH - January, 2012

Change the Weather History Date:

Sunday, January 15, 2012

  Actual Average Record
Temperature  
Mean Temperature 23 °F 10 °F  
Max Temperature 32 °F 19 °F 42 °F (1933)
Min Temperature 14 °F 1 °F -39 °F (1972)
Degree Days  
Heating Degree Days 42 55  
Month to date heating degree days 649 822  
Since 1 July heating degree days 3785 4591  
Cooling Degree Days 0 0  
Month to date cooling degree days 0 0  
Year to date cooling degree days 0 0  
Moisture  
Dew Point 16 °F    
Average Humidity 74    
Maximum Humidity 88    
Minimum Humidity 59    
Precipitation  
Precipitation T in 0.03 in 0.73 in (1969)
Month to date precipitation 0.08 0.52  
Year to date precipitation 0.08 0.52  
Snow  
Snow T in 0.70 in 5.20 in (1953)
Month to date snowfall 1.0 10.1  
Since 1 July snowfall 12.8 43.9  
Snow Depth 1.00 in    
Sea Level Pressure  
Sea Level Pressure 29.96 in    
Wind  
Wind Speed 9 mph (SSE)    
Max Wind Speed 18 mph    
Max Gust Speed 25 mph    
Visibility 6 miles    
Events      
T = Trace of Precipitation, MM = Missing Value Source: NWS Daily Summary

Daily Weather History Graph

Daily Weather History Graph

Search for Another Location

Airport or City:

Trip Planner

Search our weather history database for the weather conditions in past years. The results will help you decide how hot, cold, wet, or windy it might be!

Date:

Astronomy

Jan. 15, 2012 Rise Set
Actual Time 7:49 AM CST 4:46 PM CST
Civil Twilight 7:15 AM CST 5:20 PM CST
Nautical Twilight 6:37 AM CST 5:58 PM CST
Astronomical Twilight 6:01 AM CST 6:34 PM CST
Moon No Moon Rise 10:37 AM CST (1/15)
Length of Visible Light 10h 05m
Length of Day
8h 56m
Waning Gibbous, 57% of the Moon is Illuminated
Jan 15
Waning Gibbous
Jan 16
Last Quarter
Jan 23
New
Jan 30
First Quarter
Feb 7
Full

Hourly Weather History & Observations

Time (CST) Temp. Windchill Dew Point Humidity Pressure Visibility Wind Dir Wind Speed Gust Speed Precip Events Conditions
12:55 AM 14.0 °F 3.9 °F 10.0 °F 84% 30.13 in 4.0 mi SW 6.9 mph - 0.00 in   Overcast
1:55 AM 14.0 °F 5.1 °F 10.9 °F 88% 30.12 in 5.0 mi SSW 5.8 mph - N/A   Overcast
2:55 AM 15.1 °F 7.7 °F 10.9 °F 84% 30.12 in 6.0 mi South 4.6 mph - N/A   Overcast
3:55 AM 15.8 °F 8.6 °F 12.2 °F 86% 30.02 in 5.0 mi SSE 4.6 mph - N/A   Overcast
4:55 AM 15.1 °F 7.7 °F 12.0 °F 88% 30.12 in 4.0 mi South 4.6 mph - N/A   Overcast
5:05 AM 15.8 °F 7.2 °F 12.2 °F 86% 30.02 in 3.0 mi South 5.8 mph - N/A   Overcast
5:47 AM 15.8 °F 6.1 °F 12.2 °F 86% 30.02 in 2.5 mi South 6.9 mph - N/A   Overcast
5:55 AM 16.0 °F 7.4 °F 12.9 °F 88% 30.11 in 2.5 mi SSE 5.8 mph - N/A   Overcast
6:44 AM 17.6 °F 9.3 °F 14.0 °F 86% 30.01 in 2.0 mi South 5.8 mph - 0.00 in   Light Freezing Drizzle
6:55 AM 17.1 °F 8.7 °F 14.0 °F 88% 30.11 in 2.0 mi South 5.8 mph - 0.00 in   Light Freezing Drizzle
7:32 AM 17.6 °F 10.7 °F 14.0 °F 86% 30.01 in 2.5 mi SE 4.6 mph - 0.00 in   Overcast
7:44 AM 17.6 °F 9.3 °F 14.0 °F 86% 30.00 in 3.0 mi SE 5.8 mph - 0.00 in   Overcast
7:55 AM 18.0 °F 8.7 °F 15.1 °F 88% 30.09 in 4.0 mi SE 6.9 mph - 0.00 in   Overcast
8:04 AM 17.6 °F 9.3 °F 15.8 °F 93% 30.00 in 2.0 mi SE 5.8 mph - N/A   Overcast
8:15 AM 19.4 °F 11.5 °F 15.8 °F 86% 30.00 in 2.0 mi ESE 5.8 mph - N/A   Overcast
8:35 AM 19.4 °F 11.5 °F 15.8 °F 86% 29.99 in 3.0 mi SE 5.8 mph - N/A   Overcast
8:47 AM 19.4 °F 8.6 °F 15.8 °F 86% 29.99 in 3.0 mi SE 9.2 mph - N/A   Overcast
8:55 AM 19.0 °F 7.5 °F 16.0 °F 88% 30.07 in 3.0 mi SE 10.4 mph - N/A   Overcast
9:04 AM 19.4 °F 7.2 °F 15.8 °F 86% 29.97 in 2.0 mi SE 11.5 mph - N/A   Overcast
9:55 AM 21.0 °F 9.9 °F 18.0 °F 88% 30.06 in 2.0 mi SE 10.4 mph - N/A   Overcast
10:13 AM 21.2 °F 12.6 °F 17.6 °F 86% 29.97 in 4.0 mi SSE 6.9 mph - N/A   Overcast
10:43 AM 21.2 °F 8.9 °F 17.6 °F 86% 29.95 in 2.5 mi SE 12.7 mph - N/A   Overcast
10:55 AM 21.9 °F 9.8 °F 18.0 °F 85% 30.03 in 3.0 mi SSE 12.7 mph - N/A   Overcast
11:52 AM 24.8 °F 15.3 °F 19.4 °F 80% 29.90 in 6.0 mi SSE 9.2 mph 18.4 mph N/A   Scattered Clouds
11:55 AM 24.8 °F 14.6 °F 19.4 °F 80% 29.90 in 6.0 mi SSE 10.4 mph 18.4 mph N/A   Partly Cloudy
12:55 PM 28.0 °F 18.1 °F 19.9 °F 72% 29.95 in 9.0 mi SE 11.5 mph - N/A   Clear
1:55 PM 30.0 °F 20.0 °F 21.0 °F 69% 29.90 in 10.0 mi ESE 12.7 mph - N/A   Clear
2:55 PM 30.9 °F 21.2 °F 21.9 °F 69% 29.86 in 9.0 mi SE 12.7 mph - N/A   Partly Cloudy
3:55 PM 32.0 °F 21.2 °F 19.0 °F 59% 29.82 in 10.0 mi SSE 16.1 mph - N/A   Partly Cloudy
4:55 PM 28.9 °F 20.4 °F 19.0 °F 67% 29.82 in 10.0 mi SE 9.2 mph 19.6 mph N/A   Partly Cloudy
5:55 PM 28.9 °F 21.1 °F 19.0 °F 67% 29.80 in 10.0 mi SE 8.1 mph - N/A   Clear
6:55 PM 28.9 °F 20.4 °F 17.1 °F 61% 29.79 in 10.0 mi SSE 9.2 mph - N/A   Clear
7:55 PM 28.0 °F 20.8 °F 17.1 °F 63% 29.79 in 10.0 mi South 6.9 mph - N/A   Clear
8:55 PM 28.0 °F 20.0 °F 18.0 °F 66% 29.77 in 10.0 mi South 8.1 mph - N/A   Clear
9:55 PM 27.0 °F 18.0 °F 18.0 °F 69% 29.78 in 10.0 mi South 9.2 mph - N/A   Clear
10:55 PM 28.4 °F 18.0 °F 19.4 °F 69% 29.70 in 10.0 mi South 12.7 mph - N/A   Clear
11:55 PM 27.0 °F 16.1 °F 19.0 °F 72% 29.75 in 10.0 mi South 12.7 mph - N/A   Clear